This is the latest recevied weather packets stored in our database for station/object KB4KY. If no packets are shown the sender has not sent any weather packets the latest 10 day(s).
| Time | Temp. | Humidity | Pressure | Rain* | Wind** | Luminosity | Snow |
|---|---|---|---|---|---|---|---|
| 1777583443 | 17.78° C | 43% | 1014.3 hPa | 0 mm | - | - | - |
| 1777583143 | 17.78° C | 44% | 1014.4 hPa | 0 mm | - | - | - |
| 1777582842 | 17.78° C | 41% | 1014.2 hPa | 0 mm | - | - | - |
| 1777582542 | 17.78° C | 44% | 1014.4 hPa | 0 mm | - | - | - |
| 1777582242 | 18.33° C | 41% | 1014.6 hPa | 0 mm | - | - | - |
| 1777581943 | 18.33° C | 44% | 1014.6 hPa | 0 mm | - | - | - |
| 1777581641 | 18.33° C | 41% | 1014.7 hPa | 0 mm | - | - | - |
| 1777581341 | 18.89° C | 43% | 1014.6 hPa | 0 mm | - | - | - |
| 1777581042 | 18.89° C | 41% | 1014.7 hPa | 0 mm | - | - | - |
| 1777580740 | 18.89° C | 44% | 1014.8 hPa | 0 mm | - | - | - |
| 1777580440 | 18.89° C | 43% | 1014.9 hPa | 0 mm | - | - | - |
| 1777580141 | 18.89° C | 43% | 1015.2 hPa | 0 mm | - | - | - |
| 1777579839 | 18.33° C | 42% | 1015.2 hPa | 0 mm | - | - | - |
| 1777579541 | 18.33° C | 43% | 1015.3 hPa | 0 mm | - | - | - |
| 1777579241 | 18.33° C | 44% | 1015.3 hPa | 0 mm | - | - | - |
| 1777578938 | 18.33° C | 43% | 1015.3 hPa | 0 mm | - | - | - |
| 1777578641 | 17.78° C | 46% | 1015.4 hPa | 0 mm | - | - | - |
| 1777578340 | 17.78° C | 45% | 1015.6 hPa | 0 mm | - | - | - |
| 1777577737 | 17.78° C | 49% | 1015.8 hPa | 0 mm | - | - | - |
| 1777577438 | 17.78° C | 44% | 1015.8 hPa | 0 mm | - | - | - |
| 1777577138 | 17.78° C | 46% | 1015.9 hPa | 0 mm | - | - | - |
| 1777576837 | 17.78° C | 46% | 1016.1 hPa | 0 mm | - | - | - |
| 1777576538 | 17.78° C | 46% | 1016.2 hPa | 0 mm | - | - | - |
| 1777576238 | 17.78° C | 47% | 1016.1 hPa | 0 mm | - | - | - |
| 1777575936 | 17.78° C | 46% | 1016.1 hPa | 0 mm | - | - | - |
* Rain latest hour (hover to see other rain measurements)
** Current wind speed in m/s (hover to see current wind gust speed)